Weather History for Burlington, WI

Change the Weather History Date:

Thursday, October 25, 2012

  Actual Average (KENW) Record (KENW)
Temperature  
Mean Temperature 53 °F -  
Max Temperature 69 °F 55 °F 75 °F (1964)
Min Temperature 37 °F 39 °F 23 °F (1962)
Degree Days  
Heating Degree Days 12    
Growing Degree Days 3 (Base 50)    
Moisture  
Dew Point 54 °F    
Average Humidity 84    
Maximum Humidity 93    
Minimum Humidity 73    
Precipitation  
Precipitation 0.14 in - - ()
Sea Level Pressure  
Sea Level Pressure 29.77 in    
Wind  
Wind Speed 15 mph (SW)    
Max Wind Speed 25 mph    
Max Gust Speed 37 mph    
Visibility 10 miles    
Events Rain    
Averages and records for this station are not official NWS values.
T = Trace of Precipitation, MM = Missing Value Source: NWS Daily Summary

Daily Weather History Graph

Daily Weather History Graph

Search for Another Location

Airport:

Trip Planner

Search our weather history database for the weather conditions in past years. The results will help you decide how hot, cold, wet, or windy it might be!

Date:

Astronomy

Oct. 25, 2012 Rise Set
Actual Time 7:19 AM CDT 5:54 PM CDT
Civil Twilight 6:50 AM CDT 6:23 PM CDT
Nautical Twilight 6:17 AM CDT 6:56 PM CDT
Astronomical Twilight 5:44 AM CDT 7:29 PM CDT
Moon 3:45 PM CDT 3:10 AM CDT
Length of Visible Light 11h 33m
Length of Day
10h 35m
Waxing Gibbous, 84% of the Moon is Illuminated
Oct 25
Waxing Gibbous
Oct 29
Full
Nov 6
Last Quarter
Nov 13
New
Nov 20
First Quarter

Hourly Weather History & Observations

Time (CDT) Temp. Windchill Dew Point Humidity Pressure Visibility Wind Dir Wind Speed Gust Speed Precip Events Conditions
12:15 AM 64.4 °F - 60.8 °F 88% 29.80 in 10.0 mi South 15.0 mph 21.9 mph N/A   Clear
12:35 AM 64.4 °F - 60.8 °F 88% 29.80 in 10.0 mi South 13.8 mph 18.4 mph N/A   Clear
12:55 AM 64.4 °F - 60.8 °F 88% 29.80 in 10.0 mi South 9.2 mph - N/A   Clear
1:15 AM 64.4 °F - 60.8 °F 88% 29.80 in 10.0 mi South 11.5 mph - N/A   Clear
1:35 AM 64.4 °F - 60.8 °F 88% 29.79 in 10.0 mi South 10.4 mph 17.3 mph N/A   Clear
1:55 AM 64.4 °F - 60.8 °F 88% 29.79 in 10.0 mi South 11.5 mph 18.4 mph N/A   Clear
2:15 AM 64.4 °F - 60.8 °F 88% 29.79 in 10.0 mi South 10.4 mph 17.3 mph N/A   Scattered Clouds
2:35 AM 64.4 °F - 60.8 °F 88% 29.79 in 10.0 mi South 13.8 mph 18.4 mph N/A   Overcast
2:55 AM 64.4 °F - 60.8 °F 88% 29.78 in 10.0 mi South 13.8 mph 18.4 mph N/A   Scattered Clouds
3:15 AM 64.4 °F - 59.0 °F 83% 29.77 in 10.0 mi SSW 10.4 mph 19.6 mph N/A   Clear
3:35 AM 62.6 °F - 59.0 °F 88% 29.77 in 10.0 mi SSW 10.4 mph 17.3 mph N/A   Clear
3:55 AM 62.6 °F - 59.0 °F 88% 29.77 in 10.0 mi SSW 9.2 mph - N/A   Clear
4:15 AM 62.6 °F - 59.0 °F 88% 29.77 in 10.0 mi South 11.5 mph - N/A   Clear
4:55 AM 62.6 °F - 59.0 °F 88% 29.78 in 10.0 mi SSW 9.2 mph - N/A   Clear
5:15 AM 62.6 °F - 59.0 °F 88% 29.78 in 10.0 mi South 8.1 mph - N/A   Mostly Cloudy
5:35 AM 62.6 °F - 59.0 °F 88% 29.76 in 10.0 mi South 9.2 mph - N/A   Mostly Cloudy
5:55 AM 62.6 °F - 59.0 °F 88% 29.76 in 10.0 mi South 11.5 mph 20.7 mph N/A   Mostly Cloudy
6:15 AM 62.6 °F - 59.0 °F 88% 29.76 in 10.0 mi South 11.5 mph 17.3 mph N/A   Mostly Cloudy
6:35 AM 62.6 °F - 59.0 °F 88% 29.75 in 10.0 mi South 16.1 mph 23.0 mph N/A   Mostly Cloudy
7:15 AM 62.6 °F - 59.0 °F 88% 29.76 in 10.0 mi SSW 17.3 mph 21.9 mph N/A   Clear
7:35 AM 62.6 °F - 59.0 °F 88% 29.76 in 10.0 mi SSW 12.7 mph 25.3 mph N/A   Scattered Clouds
8:15 AM 62.6 °F - 59.0 °F 88% 29.73 in 10.0 mi South 18.4 mph 26.5 mph N/A   Clear
8:35 AM 64.4 °F - 59.0 °F 83% 29.73 in 10.0 mi South 17.3 mph 25.3 mph N/A   Clear
8:55 AM 64.4 °F - 59.0 °F 83% 29.73 in 10.0 mi South 16.1 mph 24.2 mph N/A   Scattered Clouds
9:15 AM 66.2 °F - 59.0 °F 78% 29.72 in 10.0 mi South 20.7 mph 27.6 mph N/A   Scattered Clouds
9:35 AM 68.0 °F - 59.0 °F 73% 29.72 in 10.0 mi South 19.6 mph 28.8 mph N/A   Scattered Clouds
9:55 AM 68.0 °F - 60.8 °F 78% 29.71 in 10.0 mi South 18.4 mph 32.2 mph N/A   Scattered Clouds
10:15 AM 68.0 °F - 60.8 °F 78% 29.70 in 10.0 mi SSW 20.7 mph 27.6 mph N/A   Mostly Cloudy
10:35 AM 69.8 °F - 60.8 °F 73% 29.70 in 10.0 mi SSW 17.3 mph 28.8 mph N/A   Scattered Clouds
10:55 AM 69.8 °F - 60.8 °F 73% 29.70 in 10.0 mi SSW 18.4 mph 29.9 mph N/A   Mostly Cloudy
11:15 AM 68.0 °F - 60.8 °F 78% 29.70 in 10.0 mi SSW 24.2 mph 36.8 mph N/A   Overcast
11:35 AM 68.0 °F - 60.8 °F 78% 29.69 in 10.0 mi SSW 25.3 mph 31.1 mph N/A   Overcast
12:15 PM 68.0 °F - 60.8 °F 78% 29.67 in 10.0 mi SSW 25.3 mph 31.1 mph N/A   Overcast
12:35 PM 68.0 °F - 60.8 °F 78% 29.67 in 10.0 mi SSW 23.0 mph 31.1 mph N/A   Overcast
12:55 PM 68.0 °F - 60.8 °F 78% 29.66 in 10.0 mi South 17.3 mph 26.5 mph N/A   Overcast
1:15 PM 68.0 °F - 60.8 °F 78% 29.65 in 10.0 mi SSW 18.4 mph 31.1 mph N/A   Overcast
1:35 PM 68.0 °F - 60.8 °F 78% 29.65 in 10.0 mi SSW 17.3 mph 31.1 mph N/A   Overcast
1:55 PM 68.0 °F - 60.8 °F 78% 29.65 in 10.0 mi South 17.3 mph 27.6 mph N/A   Overcast
2:15 PM 68.0 °F - 60.8 °F 78% 29.64 in 10.0 mi South 20.7 mph 31.1 mph N/A   Overcast
2:35 PM 68.0 °F - 60.8 °F 78% 29.64 in 10.0 mi South 16.1 mph 26.5 mph N/A   Overcast
2:55 PM 68.0 °F - 60.8 °F 78% 29.63 in 10.0 mi South 17.3 mph 26.5 mph N/A   Overcast
3:15 PM 69.8 °F - 60.8 °F 73% 29.63 in 10.0 mi South 20.7 mph 29.9 mph N/A   Overcast
3:35 PM 69.8 °F - 60.8 °F 73% 29.63 in 10.0 mi South 21.9 mph 27.6 mph N/A   Overcast
3:55 PM 69.8 °F - 60.8 °F 73% 29.63 in 10.0 mi South 19.6 mph 26.5 mph N/A   Overcast
4:15 PM 69.8 °F - 60.8 °F 73% 29.64 in 10.0 mi SSW 16.1 mph 27.6 mph N/A   Overcast
4:35 PM 69.8 °F - 60.8 °F 73% 29.64 in 7.0 mi SW 19.6 mph 26.5 mph 0.02 in   Overcast
4:55 PM 57.2 °F - 53.6 °F 88% 29.69 in 10.0 mi West 15.0 mph 25.3 mph 0.03 in   Mostly Cloudy
5:15 PM 55.4 °F - 51.8 °F 88% 29.72 in 10.0 mi West 17.3 mph 24.2 mph N/A   Overcast
5:55 PM 51.8 °F - 48.2 °F 88% 29.76 in 10.0 mi West 12.7 mph 19.6 mph N/A   Overcast
6:15 PM 50.0 °F - 46.4 °F 87% 29.78 in 10.0 mi West 16.1 mph 26.5 mph N/A   Light Drizzle
6:35 PM 46.4 °F 40.4 °F 44.6 °F 93% 29.79 in 7.0 mi WNW 13.8 mph 19.6 mph 0.03 in Rain Heavy Rain
7:15 PM 44.6 °F 36.9 °F 42.8 °F 93% 29.84 in 4.0 mi NW 18.4 mph 26.5 mph 0.05 in Rain Rain
7:35 PM 42.8 °F 34.5 °F 41.0 °F 93% 29.85 in 4.0 mi WNW 18.4 mph 25.3 mph 0.07 in Rain Rain
8:15 PM 41.0 °F 32.5 °F 39.2 °F 93% 29.88 in 7.0 mi West 17.3 mph 25.3 mph N/A Rain Light Rain
8:35 PM 41.0 °F 31.4 °F 37.4 °F 87% 29.88 in 10.0 mi WNW 21.9 mph 31.1 mph 0.01 in Rain Light Rain
8:55 PM 39.2 °F 30.5 °F 37.4 °F 93% 29.92 in 10.0 mi WNW 16.1 mph 24.2 mph 0.01 in   Overcast
9:15 PM 39.2 °F 29.8 °F 37.4 °F 93% 29.91 in 10.0 mi NW 18.4 mph 26.5 mph N/A   Overcast
9:35 PM 39.2 °F 30.8 °F 37.4 °F 93% 29.94 in 10.0 mi WNW 15.0 mph 23.0 mph N/A   Overcast
9:55 PM 39.2 °F 29.3 °F 35.6 °F 87% 29.95 in 10.0 mi NW 20.7 mph 25.3 mph N/A   Overcast
10:15 PM 41.0 °F 33.5 °F 35.6 °F 81% 29.97 in 10.0 mi NW 13.8 mph 24.2 mph N/A   Overcast
10:35 PM 41.0 °F 32.5 °F 35.6 °F 81% 29.98 in 10.0 mi NW 17.3 mph 27.6 mph N/A   Overcast
11:15 PM 39.2 °F 30.2 °F 33.8 °F 81% 30.03 in 10.0 mi NW 17.3 mph 31.1 mph N/A   Overcast
11:35 PM 37.4 °F 26.6 °F 32.0 °F 81% 30.05 in 10.0 mi NW 21.9 mph 27.6 mph N/A   Overcast
11:55 PM 37.4 °F 27.5 °F 32.0 °F 81% 30.06 in 10.0 mi NW 18.4 mph 25.3 mph N/A   Overcast